Year,Month,Day,Hour,Minute,Value (Times are PST for temperature in C)
2012,07,14,00,00,14.20
2012,07,14,00,01,14.20
2012,07,14,00,02,14.20
2012,07,14,00,03,14.20
2012,07,14,00,04,14.20
2012,07,14,00,05,14.20
2012,07,14,00,06,14.20
2012,07,14,00,07,14.20
2012,07,14,00,08,14.20
2012,07,14,00,09,14.20
2012,07,14,00,10,14.20
2012,07,14,00,11,14.20
2012,07,14,00,12,14.20
2012,07,14,00,13,14.20
2012,07,14,00,14,14.20
2012,07,14,00,15,14.20
2012,07,14,00,16,14.20
2012,07,14,00,17,14.20
2012,07,14,00,18,14.20
2012,07,14,00,19,14.10
2012,07,14,00,20,14.10
2012,07,14,00,21,14.10
2012,07,14,00,22,14.10
2012,07,14,00,23,14.10
2012,07,14,00,24,14.10
2012,07,14,00,25,14.10
2012,07,14,00,26,14.00
2012,07,14,00,27,14.00
2012,07,14,00,28,14.00
2012,07,14,00,29,14.00
2012,07,14,00,30,14.00
2012,07,14,00,31,13.90
2012,07,14,00,32,13.90
2012,07,14,00,33,13.90
2012,07,14,00,34,13.90
2012,07,14,00,35,13.90
2012,07,14,00,36,13.80
2012,07,14,00,37,13.80
2012,07,14,00,38,13.80
2012,07,14,00,39,13.80
2012,07,14,00,40,13.80
2012,07,14,00,41,13.80
2012,07,14,00,42,13.70
2012,07,14,00,43,13.70
2012,07,14,00,44,13.70
2012,07,14,00,45,13.70
2012,07,14,00,46,13.70
2012,07,14,00,47,13.70
2012,07,14,00,48,13.70
2012,07,14,00,49,13.70
2012,07,14,00,50,13.70
2012,07,14,00,51,13.70
2012,07,14,00,52,13.70
2012,07,14,00,53,13.70
2012,07,14,00,54,13.70
2012,07,14,00,55,13.70
2012,07,14,00,56,13.70
2012,07,14,00,57,13.70
2012,07,14,00,58,13.70
2012,07,14,00,59,13.70
2012,07,14,01,00,13.70
2012,07,14,01,01,13.60
2012,07,14,01,02,13.60
2012,07,14,01,03,13.60
2012,07,14,01,04,13.60
2012,07,14,01,05,13.60
2012,07,14,01,06,13.60
2012,07,14,01,07,13.60
2012,07,14,01,08,13.60
2012,07,14,01,09,13.60
2012,07,14,01,10,13.60
2012,07,14,01,11,13.60
2012,07,14,01,12,13.60
2012,07,14,01,13,13.60
2012,07,14,01,14,13.60
2012,07,14,01,15,13.60
2012,07,14,01,16,13.60
2012,07,14,01,17,13.60
2012,07,14,01,18,13.60
2012,07,14,01,19,13.50
2012,07,14,01,20,13.50
2012,07,14,01,21,13.50
2012,07,14,01,22,13.50
2012,07,14,01,23,13.50
2012,07,14,01,24,13.40
2012,07,14,01,25,13.40
2012,07,14,01,26,13.40
2012,07,14,01,27,13.40
2012,07,14,01,28,13.40
2012,07,14,01,29,13.40
2012,07,14,01,30,13.40
2012,07,14,01,31,13.40
2012,07,14,01,32,13.30
2012,07,14,01,33,13.30
2012,07,14,01,34,13.30
2012,07,14,01,35,13.30
2012,07,14,01,36,13.30
2012,07,14,01,37,13.30
2012,07,14,01,38,13.30
2012,07,14,01,39,13.20
2012,07,14,01,40,13.20
2012,07,14,01,41,13.20
2012,07,14,01,42,13.20
2012,07,14,01,43,13.20
2012,07,14,01,44,13.10
2012,07,14,01,45,13.10
2012,07,14,01,46,13.10
2012,07,14,01,47,13.10
2012,07,14,01,48,13.00
2012,07,14,01,49,13.00
2012,07,14,01,50,13.00
2012,07,14,01,51,12.90
2012,07,14,01,52,12.90
2012,07,14,01,53,12.90
2012,07,14,01,54,12.90
2012,07,14,01,55,12.90
2012,07,14,01,56,12.80
2012,07,14,01,57,12.80
2012,07,14,01,58,12.80
2012,07,14,01,59,12.80
2012,07,14,02,00,12.80
2012,07,14,02,01,12.80
2012,07,14,02,02,12.70
2012,07,14,02,03,12.70
2012,07,14,02,04,12.70
2012,07,14,02,05,12.70
2012,07,14,02,06,12.70
2012,07,14,02,07,12.70
2012,07,14,02,08,12.70
2012,07,14,02,09,12.60
2012,07,14,02,10,12.60
2012,07,14,02,11,12.60
2012,07,14,02,12,12.60
2012,07,14,02,13,12.60
2012,07,14,02,14,12.60
2012,07,14,02,15,12.50
2012,07,14,02,16,12.50
2012,07,14,02,17,12.50
2012,07,14,02,18,12.50
2012,07,14,02,19,12.40
2012,07,14,02,20,12.40
2012,07,14,02,21,12.40
2012,07,14,02,22,12.40
2012,07,14,02,23,12.40
2012,07,14,02,24,12.40
2012,07,14,02,25,12.40
2012,07,14,02,26,12.30
2012,07,14,02,27,12.30
2012,07,14,02,28,12.30
2012,07,14,02,29,12.30
2012,07,14,02,30,12.30
2012,07,14,02,31,12.30
2012,07,14,02,32,12.30
2012,07,14,02,33,12.30
2012,07,14,02,34,12.30
2012,07,14,02,35,12.30
2012,07,14,02,36,12.30
2012,07,14,02,37,12.30
2012,07,14,02,38,12.30
2012,07,14,02,39,12.30
2012,07,14,02,40,12.30
2012,07,14,02,41,12.30
2012,07,14,02,42,12.30
2012,07,14,02,43,12.30
2012,07,14,02,44,12.30
2012,07,14,02,45,12.30
2012,07,14,02,46,12.30
2012,07,14,02,47,12.30
2012,07,14,02,48,12.30
2012,07,14,02,49,12.30
2012,07,14,02,50,12.30
2012,07,14,02,51,12.30
2012,07,14,02,52,12.30
2012,07,14,02,53,12.30
2012,07,14,02,54,12.30
2012,07,14,02,55,12.30
2012,07,14,02,56,12.30
2012,07,14,02,57,12.30
2012,07,14,02,58,12.30
2012,07,14,02,59,12.30
2012,07,14,03,00,12.30
2012,07,14,03,01,12.30
2012,07,14,03,02,12.30
2012,07,14,03,03,12.30
2012,07,14,03,04,12.30
2012,07,14,03,05,12.30
2012,07,14,03,06,12.30
2012,07,14,03,07,12.30
2012,07,14,03,08,12.30
2012,07,14,03,09,12.30
2012,07,14,03,10,12.30
2012,07,14,03,11,12.30
2012,07,14,03,12,12.30
2012,07,14,03,13,12.30
2012,07,14,03,14,12.30
2012,07,14,03,15,12.30
2012,07,14,03,16,12.30
2012,07,14,03,17,12.30
2012,07,14,03,18,12.30
2012,07,14,03,19,12.30
2012,07,14,03,20,12.30
2012,07,14,03,21,12.20
2012,07,14,03,22,12.20
2012,07,14,03,23,12.20
2012,07,14,03,24,12.20
2012,07,14,03,25,12.20
2012,07,14,03,26,12.20
2012,07,14,03,27,12.20
2012,07,14,03,28,12.20
2012,07,14,03,29,12.20
2012,07,14,03,30,12.20
2012,07,14,03,31,12.20
2012,07,14,03,32,12.20
2012,07,14,03,33,12.20
2012,07,14,03,34,12.10
2012,07,14,03,35,12.10
2012,07,14,03,36,12.10
2012,07,14,03,37,12.10
2012,07,14,03,38,12.10
2012,07,14,03,39,12.10
2012,07,14,03,40,12.10
2012,07,14,03,41,12.10
2012,07,14,03,42,12.10
2012,07,14,03,43,12.00
2012,07,14,03,44,12.00
2012,07,14,03,45,12.00
2012,07,14,03,46,12.00
2012,07,14,03,47,12.00
2012,07,14,03,48,12.00
2012,07,14,03,49,11.90
2012,07,14,03,50,11.90
2012,07,14,03,51,11.90
2012,07,14,03,52,11.90
2012,07,14,03,53,11.90
2012,07,14,03,54,11.90
2012,07,14,03,55,11.90
2012,07,14,03,56,11.90
2012,07,14,03,57,11.90
2012,07,14,03,58,11.90
2012,07,14,03,59,11.90
2012,07,14,04,00,11.90
2012,07,14,04,01,11.90
2012,07,14,04,02,11.90
2012,07,14,04,03,11.90
2012,07,14,04,04,11.90
2012,07,14,04,05,11.90
2012,07,14,04,06,11.90
2012,07,14,04,07,11.90
2012,07,14,04,08,11.90
2012,07,14,04,09,11.90
2012,07,14,04,10,11.90
2012,07,14,04,11,11.90
2012,07,14,04,12,11.90
2012,07,14,04,13,11.80
2012,07,14,04,14,11.90
2012,07,14,04,15,11.80
2012,07,14,04,16,11.80
2012,07,14,04,17,11.80
2012,07,14,04,18,11.80
2012,07,14,04,19,11.80
2012,07,14,04,20,11.80
2012,07,14,04,21,11.80
2012,07,14,04,22,11.80
2012,07,14,04,23,11.90
2012,07,14,04,24,11.90
2012,07,14,04,25,11.90
2012,07,14,04,26,11.90
2012,07,14,04,27,11.90
2012,07,14,04,28,11.90
2012,07,14,04,29,11.90
2012,07,14,04,30,11.80
2012,07,14,04,31,11.80
2012,07,14,04,32,11.80
2012,07,14,04,33,11.80
2012,07,14,04,34,11.80
2012,07,14,04,35,11.80
2012,07,14,04,36,11.80
2012,07,14,04,37,11.90
2012,07,14,04,38,11.90
2012,07,14,04,39,11.90
2012,07,14,04,40,11.90
2012,07,14,04,41,11.90
2012,07,14,04,42,11.90
2012,07,14,04,43,11.90
2012,07,14,04,44,11.90
2012,07,14,04,45,11.90
2012,07,14,04,46,11.90
2012,07,14,04,47,11.90
2012,07,14,04,48,11.90
2012,07,14,04,49,11.90
2012,07,14,04,50,11.90
2012,07,14,04,51,11.90
2012,07,14,04,52,11.90
2012,07,14,04,53,11.80
2012,07,14,04,54,11.80
2012,07,14,04,55,11.80
2012,07,14,04,56,11.80
2012,07,14,04,57,11.80
2012,07,14,04,58,11.80
2012,07,14,04,59,11.80
2012,07,14,05,00,11.80
2012,07,14,05,01,11.80
2012,07,14,05,02,11.80
2012,07,14,05,03,11.80
2012,07,14,05,04,11.80
2012,07,14,05,05,11.80
2012,07,14,05,06,11.80
2012,07,14,05,07,11.80
2012,07,14,05,08,11.80
2012,07,14,05,09,11.80
2012,07,14,05,10,11.80
2012,07,14,05,11,11.70
2012,07,14,05,12,11.70
2012,07,14,05,13,11.70
2012,07,14,05,14,11.70
2012,07,14,05,15,11.70
2012,07,14,05,16,11.70
2012,07,14,05,17,11.70
2012,07,14,05,18,11.70
2012,07,14,05,19,11.70
2012,07,14,05,20,11.70
2012,07,14,05,21,11.70
2012,07,14,05,22,11.70
2012,07,14,05,23,11.70
2012,07,14,05,24,11.70
2012,07,14,05,25,11.70
2012,07,14,05,26,11.60
2012,07,14,05,27,11.60
2012,07,14,05,28,11.60
2012,07,14,05,29,11.60
2012,07,14,05,30,11.60
2012,07,14,05,31,11.60
2012,07,14,05,32,11.60
2012,07,14,05,33,11.60
2012,07,14,05,34,11.60
2012,07,14,05,35,11.60
2012,07,14,05,36,11.60
2012,07,14,05,37,11.60
2012,07,14,05,38,11.60
2012,07,14,05,39,11.60
2012,07,14,05,40,11.60
2012,07,14,05,41,11.60
2012,07,14,05,42,11.60
2012,07,14,05,43,11.60
2012,07,14,05,44,11.60
2012,07,14,05,45,11.60
2012,07,14,05,46,11.60
2012,07,14,05,47,11.50
2012,07,14,05,48,11.50
2012,07,14,05,49,11.50
2012,07,14,05,50,11.50
2012,07,14,05,51,11.50
2012,07,14,05,52,11.50
2012,07,14,05,53,11.50
2012,07,14,05,54,11.50
2012,07,14,05,55,11.50
2012,07,14,05,56,11.50
2012,07,14,05,57,11.50
2012,07,14,05,58,11.50
2012,07,14,05,59,11.50
2012,07,14,06,00,11.50
2012,07,14,06,01,11.50
2012,07,14,06,02,11.50
2012,07,14,06,03,11.50
2012,07,14,06,04,11.50
2012,07,14,06,05,11.50
2012,07,14,06,06,11.50
2012,07,14,06,07,11.50
2012,07,14,06,08,11.50
2012,07,14,06,09,11.50
2012,07,14,06,10,11.50
2012,07,14,06,11,11.50
2012,07,14,06,12,11.60
2012,07,14,06,13,11.60
2012,07,14,06,14,11.60
2012,07,14,06,15,11.60
2012,07,14,06,16,11.70
2012,07,14,06,17,11.70
2012,07,14,06,18,11.70
2012,07,14,06,19,11.70
2012,07,14,06,20,11.80
2012,07,14,06,21,11.80
2012,07,14,06,22,11.80
2012,07,14,06,23,11.80
2012,07,14,06,24,11.90
2012,07,14,06,25,11.90
2012,07,14,06,26,11.90
2012,07,14,06,27,11.90
2012,07,14,06,28,11.90
2012,07,14,06,29,11.90
2012,07,14,06,30,11.90
2012,07,14,06,31,11.90
2012,07,14,06,32,11.90
2012,07,14,06,33,11.90
2012,07,14,06,34,11.90
2012,07,14,06,35,12.00
2012,07,14,06,36,12.00
2012,07,14,06,37,12.00
2012,07,14,06,38,12.00
2012,07,14,06,39,12.00
2012,07,14,06,40,12.10
2012,07,14,06,41,12.10
2012,07,14,06,42,12.10
2012,07,14,06,43,12.20
2012,07,14,06,44,12.20
2012,07,14,06,45,12.30
2012,07,14,06,46,12.30
2012,07,14,06,47,12.40
2012,07,14,06,48,12.40
2012,07,14,06,49,12.40
2012,07,14,06,50,12.50
2012,07,14,06,51,12.50
2012,07,14,06,52,12.50
2012,07,14,06,53,12.50
2012,07,14,06,54,12.50
2012,07,14,06,55,12.50
2012,07,14,06,56,12.50
2012,07,14,06,57,12.50
2012,07,14,06,58,12.60
2012,07,14,06,59,12.60
2012,07,14,07,00,12.60
2012,07,14,07,01,12.70
2012,07,14,07,02,12.70
2012,07,14,07,03,12.80
2012,07,14,07,04,12.80
2012,07,14,07,05,12.90
2012,07,14,07,06,12.90
2012,07,14,07,07,13.00
2012,07,14,07,08,13.00
2012,07,14,07,09,13.10
2012,07,14,07,10,13.20
2012,07,14,07,11,13.20
2012,07,14,07,12,13.30
2012,07,14,07,13,13.30
2012,07,14,07,14,13.40
2012,07,14,07,15,13.50
2012,07,14,07,16,13.50
2012,07,14,07,17,13.60
2012,07,14,07,18,13.70
2012,07,14,07,19,13.70
2012,07,14,07,20,13.80
2012,07,14,07,21,13.90
2012,07,14,07,22,14.00
2012,07,14,07,23,14.00
2012,07,14,07,24,14.10
2012,07,14,07,25,14.20
2012,07,14,07,26,14.20
2012,07,14,07,27,14.30
2012,07,14,07,28,14.40
2012,07,14,07,29,14.50
2012,07,14,07,30,14.60
2012,07,14,07,31,14.70
2012,07,14,07,32,14.80
2012,07,14,07,33,14.90
2012,07,14,07,34,15.00
2012,07,14,07,35,15.20
2012,07,14,07,36,15.30
2012,07,14,07,37,15.30
2012,07,14,07,38,15.40
2012,07,14,07,39,15.50
2012,07,14,07,40,15.60
2012,07,14,07,41,15.70
2012,07,14,07,42,15.70
2012,07,14,07,43,15.80
2012,07,14,07,44,15.80
2012,07,14,07,45,15.80
2012,07,14,07,46,15.70
2012,07,14,07,47,15.70
2012,07,14,07,48,15.60
2012,07,14,07,49,15.60
2012,07,14,07,50,15.50
2012,07,14,07,51,15.50
2012,07,14,07,52,15.40
2012,07,14,07,53,15.30
2012,07,14,07,54,15.20
2012,07,14,07,55,15.10
2012,07,14,07,56,15.00
2012,07,14,07,57,14.90
2012,07,14,07,58,14.80
2012,07,14,07,59,14.70
2012,07,14,08,00,14.70
2012,07,14,08,01,14.70
2012,07,14,08,02,14.70
2012,07,14,08,03,14.70
2012,07,14,08,04,14.70
2012,07,14,08,05,14.70
2012,07,14,08,06,14.70
2012,07,14,08,07,14.70
2012,07,14,08,08,14.70
2012,07,14,08,09,14.70
2012,07,14,08,10,14.70
2012,07,14,08,11,14.70
2012,07,14,08,12,14.80
2012,07,14,08,13,14.80
2012,07,14,08,14,14.90
2012,07,14,08,15,14.90
2012,07,14,08,16,15.00
2012,07,14,08,17,15.10
2012,07,14,08,18,15.10
2012,07,14,08,19,15.20
2012,07,14,08,20,15.30
2012,07,14,08,21,15.40
2012,07,14,08,22,15.50
2012,07,14,08,23,15.50
2012,07,14,08,24,15.50
2012,07,14,08,25,15.40
2012,07,14,08,26,15.40
2012,07,14,08,27,15.40
2012,07,14,08,28,15.40
2012,07,14,08,29,15.40
2012,07,14,08,30,15.40
2012,07,14,08,31,15.40
2012,07,14,08,32,15.50
2012,07,14,08,33,15.50
2012,07,14,08,34,15.50
2012,07,14,08,35,15.50
2012,07,14,08,36,15.40
2012,07,14,08,37,15.50
2012,07,14,08,38,15.50
2012,07,14,08,39,15.50
2012,07,14,08,40,15.50
2012,07,14,08,41,15.60
2012,07,14,08,42,15.60
2012,07,14,08,43,15.60
2012,07,14,08,44,15.70
2012,07,14,08,45,15.70
2012,07,14,08,46,15.70
2012,07,14,08,47,15.80
2012,07,14,08,48,15.80
2012,07,14,08,49,15.90
2012,07,14,08,50,15.90
2012,07,14,08,51,16.00
2012,07,14,08,52,16.00
2012,07,14,08,53,16.10
2012,07,14,08,54,16.10
2012,07,14,08,55,16.20
2012,07,14,08,56,16.20
2012,07,14,08,57,16.30
2012,07,14,08,58,16.30
2012,07,14,08,59,16.40
2012,07,14,09,00,16.40
2012,07,14,09,01,16.50
2012,07,14,09,02,16.50
2012,07,14,09,03,16.60
2012,07,14,09,04,16.60
2012,07,14,09,05,16.60
2012,07,14,09,06,16.60
2012,07,14,09,07,16.60
2012,07,14,09,08,16.60
2012,07,14,09,09,16.60
2012,07,14,09,10,16.70
2012,07,14,09,11,16.70
2012,07,14,09,12,16.70
2012,07,14,09,13,16.80
2012,07,14,09,14,16.80
2012,07,14,09,15,16.90
2012,07,14,09,16,16.90
2012,07,14,09,17,17.00
2012,07,14,09,18,17.00
2012,07,14,09,19,17.00
2012,07,14,09,20,16.90
2012,07,14,09,21,16.80
2012,07,14,09,22,16.70
2012,07,14,09,23,16.60
2012,07,14,09,24,16.50
2012,07,14,09,25,16.40
2012,07,14,09,26,16.30
2012,07,14,09,27,16.20
2012,07,14,09,28,16.10
2012,07,14,09,29,16.10
2012,07,14,09,30,16.00
2012,07,14,09,31,16.00
2012,07,14,09,32,16.00
2012,07,14,09,33,16.00
2012,07,14,09,34,15.90
2012,07,14,09,35,15.90
2012,07,14,09,36,15.80
2012,07,14,09,37,15.80
2012,07,14,09,38,15.70
2012,07,14,09,39,15.60
2012,07,14,09,40,15.60
2012,07,14,09,41,15.60
2012,07,14,09,42,15.50
2012,07,14,09,43,15.50
2012,07,14,09,44,15.50
2012,07,14,09,45,15.50
2012,07,14,09,46,15.50
2012,07,14,09,47,15.50
2012,07,14,09,48,15.60
2012,07,14,09,49,15.60
2012,07,14,09,50,15.60
2012,07,14,09,51,15.60
2012,07,14,09,52,15.70
2012,07,14,09,53,15.70
2012,07,14,09,54,15.80
2012,07,14,09,55,15.80
2012,07,14,09,56,15.90
2012,07,14,09,57,16.00
2012,07,14,09,58,16.00
2012,07,14,09,59,16.10
2012,07,14,10,00,16.20
2012,07,14,10,01,16.20
2012,07,14,10,02,16.30
2012,07,14,10,03,16.30
2012,07,14,10,04,16.40
2012,07,14,10,05,16.50
2012,07,14,10,06,16.60
2012,07,14,10,07,16.80
2012,07,14,10,08,16.90
2012,07,14,10,09,17.00
2012,07,14,10,10,17.20
2012,07,14,10,11,17.30
2012,07,14,10,12,17.40
2012,07,14,10,13,17.50
2012,07,14,10,14,17.60
2012,07,14,10,15,17.80
2012,07,14,10,16,17.90
2012,07,14,10,17,18.00
2012,07,14,10,18,18.10
2012,07,14,10,19,18.20
2012,07,14,10,20,18.40
2012,07,14,10,21,18.50
2012,07,14,10,22,18.70
2012,07,14,10,23,18.80
2012,07,14,10,24,18.90
2012,07,14,10,25,19.00
2012,07,14,10,26,19.10
2012,07,14,10,27,19.20
2012,07,14,10,28,19.10
2012,07,14,10,29,19.10
2012,07,14,10,30,19.10
2012,07,14,10,31,19.20
2012,07,14,10,32,19.20
2012,07,14,10,33,19.20
2012,07,14,10,34,19.10
2012,07,14,10,35,19.10
2012,07,14,10,36,18.90
2012,07,14,10,37,18.80
2012,07,14,10,38,18.70
2012,07,14,10,39,18.60
2012,07,14,10,40,18.60
2012,07,14,10,41,18.50
2012,07,14,10,42,18.50
2012,07,14,10,43,18.50
2012,07,14,10,44,18.40
2012,07,14,10,45,18.40
2012,07,14,10,46,18.40
2012,07,14,10,47,18.40
2012,07,14,10,48,18.40
2012,07,14,10,49,18.50
2012,07,14,10,50,18.60
2012,07,14,10,51,18.60
2012,07,14,10,52,18.70
2012,07,14,10,53,18.70
2012,07,14,10,54,18.70
2012,07,14,10,55,18.80
2012,07,14,10,56,18.80
2012,07,14,10,57,18.90
2012,07,14,10,58,18.90
2012,07,14,10,59,19.00
2012,07,14,11,00,18.90
2012,07,14,11,01,18.90
2012,07,14,11,02,18.90
2012,07,14,11,03,18.90
2012,07,14,11,04,18.80
2012,07,14,11,05,18.80
2012,07,14,11,06,18.80
2012,07,14,11,07,18.70
2012,07,14,11,08,18.60
2012,07,14,11,09,18.50
2012,07,14,11,10,18.40
2012,07,14,11,11,18.30
2012,07,14,11,12,18.30
2012,07,14,11,13,18.30
2012,07,14,11,14,18.20
2012,07,14,11,15,18.20
2012,07,14,11,16,18.10
2012,07,14,11,17,18.10
2012,07,14,11,18,18.10
2012,07,14,11,19,18.10
2012,07,14,11,20,18.10
2012,07,14,11,21,18.10
2012,07,14,11,22,18.10
2012,07,14,11,23,18.00
2012,07,14,11,24,18.00
2012,07,14,11,25,18.00
2012,07,14,11,26,18.00
2012,07,14,11,27,18.10
2012,07,14,11,28,18.20
2012,07,14,11,29,18.40
2012,07,14,11,30,18.50
2012,07,14,11,31,18.60
2012,07,14,11,32,18.70
2012,07,14,11,33,18.80
2012,07,14,11,34,18.90
2012,07,14,11,35,19.00
2012,07,14,11,36,19.00
2012,07,14,11,37,19.10
2012,07,14,11,38,19.20
2012,07,14,11,39,19.20
2012,07,14,11,40,19.30
2012,07,14,11,41,19.30
2012,07,14,11,42,19.40
2012,07,14,11,43,19.40
2012,07,14,11,44,19.50
2012,07,14,11,45,19.60
2012,07,14,11,46,19.70
2012,07,14,11,47,19.80
2012,07,14,11,48,19.90
2012,07,14,11,49,19.90
2012,07,14,11,50,19.90
2012,07,14,11,51,20.00
2012,07,14,11,52,20.00
2012,07,14,11,53,20.10
2012,07,14,11,54,20.10
2012,07,14,11,55,20.20
2012,07,14,11,56,20.20
2012,07,14,11,57,20.30
2012,07,14,11,58,20.40
2012,07,14,11,59,20.40
2012,07,14,12,00,20.50
2012,07,14,12,01,20.50
2012,07,14,12,02,20.50
2012,07,14,12,03,20.50
2012,07,14,12,04,20.50
2012,07,14,12,05,20.40
2012,07,14,12,06,20.30
2012,07,14,12,07,20.30
2012,07,14,12,08,20.20
2012,07,14,12,09,20.20
2012,07,14,12,10,20.10
2012,07,14,12,11,20.00
2012,07,14,12,12,19.90
2012,07,14,12,13,19.80
2012,07,14,12,14,19.70
2012,07,14,12,15,19.60
2012,07,14,12,16,19.50
2012,07,14,12,17,19.50
2012,07,14,12,18,19.40
2012,07,14,12,19,19.40
2012,07,14,12,20,19.30
2012,07,14,12,21,19.20
2012,07,14,12,22,19.00
2012,07,14,12,23,18.80
2012,07,14,12,24,18.60
2012,07,14,12,25,18.30
2012,07,14,12,26,18.10
2012,07,14,12,27,17.80
2012,07,14,12,28,17.60
2012,07,14,12,29,17.40
2012,07,14,12,30,17.20
2012,07,14,12,31,17.10
2012,07,14,12,32,17.10
2012,07,14,12,33,17.00
2012,07,14,12,34,16.90
2012,07,14,12,35,16.90
2012,07,14,12,36,16.80
2012,07,14,12,37,16.80
2012,07,14,12,38,16.80
2012,07,14,12,39,16.80
2012,07,14,12,40,16.80
2012,07,14,12,41,16.90
2012,07,14,12,42,16.90
2012,07,14,12,43,16.90
2012,07,14,12,44,17.00
2012,07,14,12,45,17.10
2012,07,14,12,46,17.10
2012,07,14,12,47,17.20
2012,07,14,12,48,17.20
2012,07,14,12,49,17.30
2012,07,14,12,50,17.40
2012,07,14,12,51,17.50
2012,07,14,12,52,17.50
2012,07,14,12,53,17.60
2012,07,14,12,54,17.60
2012,07,14,12,55,17.70
2012,07,14,12,56,17.80
2012,07,14,12,57,17.80
2012,07,14,12,58,17.90
2012,07,14,12,59,17.90
2012,07,14,13,00,18.10
2012,07,14,13,01,18.20
2012,07,14,13,02,18.30
2012,07,14,13,03,18.40
2012,07,14,13,04,18.60
2012,07,14,13,05,18.70
2012,07,14,13,06,18.80
2012,07,14,13,07,19.00
2012,07,14,13,08,19.20
2012,07,14,13,09,19.40
2012,07,14,13,10,19.50
2012,07,14,13,11,19.60
2012,07,14,13,12,19.80
2012,07,14,13,13,19.90
2012,07,14,13,14,20.10
2012,07,14,13,15,20.20
2012,07,14,13,16,20.30
2012,07,14,13,17,20.40
2012,07,14,13,18,20.50
2012,07,14,13,19,20.60
2012,07,14,13,20,20.70
2012,07,14,13,21,20.70
2012,07,14,13,22,20.80
2012,07,14,13,23,20.90
2012,07,14,13,24,21.00
2012,07,14,13,25,21.10
2012,07,14,13,26,21.20
2012,07,14,13,27,21.30
2012,07,14,13,28,21.40
2012,07,14,13,29,21.50
2012,07,14,13,30,21.60
2012,07,14,13,31,21.60
2012,07,14,13,32,21.70
2012,07,14,13,33,21.70
2012,07,14,13,34,21.70
2012,07,14,13,35,21.70
2012,07,14,13,36,21.70
2012,07,14,13,37,21.80
2012,07,14,13,38,21.80
2012,07,14,13,39,21.90
2012,07,14,13,40,21.90
2012,07,14,13,41,21.90
2012,07,14,13,42,21.90
2012,07,14,13,43,21.80
2012,07,14,13,44,21.80
2012,07,14,13,45,21.70
2012,07,14,13,46,21.70
2012,07,14,13,47,21.70
2012,07,14,13,48,21.70
2012,07,14,13,49,21.70
2012,07,14,13,50,21.70
2012,07,14,13,51,21.80
2012,07,14,13,52,21.90
2012,07,14,13,53,21.90
2012,07,14,13,54,21.90
2012,07,14,13,55,21.90
2012,07,14,13,56,21.90
2012,07,14,13,57,22.00
2012,07,14,13,58,22.00
2012,07,14,13,59,22.10
2012,07,14,14,00,22.00
2012,07,14,14,01,21.90
2012,07,14,14,02,21.80
2012,07,14,14,03,21.80
2012,07,14,14,04,21.80
2012,07,14,14,05,21.90
2012,07,14,14,06,21.90
2012,07,14,14,07,22.00
2012,07,14,14,08,22.10
2012,07,14,14,09,22.10
2012,07,14,14,10,22.20
2012,07,14,14,11,22.20
2012,07,14,14,12,22.40
2012,07,14,14,13,22.50
2012,07,14,14,14,22.50
2012,07,14,14,15,22.50
2012,07,14,14,16,22.50
2012,07,14,14,17,22.40
2012,07,14,14,18,22.40
2012,07,14,14,19,22.30
2012,07,14,14,20,22.20
2012,07,14,14,21,22.20
2012,07,14,14,22,22.20
2012,07,14,14,23,22.20
2012,07,14,14,24,22.30
2012,07,14,14,25,22.30
2012,07,14,14,26,22.40
2012,07,14,14,27,22.40
2012,07,14,14,28,22.40
2012,07,14,14,29,22.50
2012,07,14,14,30,22.50
2012,07,14,14,31,22.60
2012,07,14,14,32,22.70
2012,07,14,14,33,22.70
2012,07,14,14,34,22.80
2012,07,14,14,35,22.90
2012,07,14,14,36,23.00
2012,07,14,14,37,23.10
2012,07,14,14,38,23.20
2012,07,14,14,39,23.30
2012,07,14,14,40,23.50
2012,07,14,14,41,23.70
2012,07,14,14,42,23.80
2012,07,14,14,43,23.90
2012,07,14,14,44,24.00
2012,07,14,14,45,24.10
2012,07,14,14,46,24.00
2012,07,14,14,47,24.00
2012,07,14,14,48,24.00
2012,07,14,14,49,24.10
2012,07,14,14,50,24.20
2012,07,14,14,51,24.20
2012,07,14,14,52,24.20
2012,07,14,14,53,24.20
2012,07,14,14,54,24.20
2012,07,14,14,55,24.30
2012,07,14,14,56,24.40
2012,07,14,14,57,24.50
2012,07,14,14,58,24.70
2012,07,14,14,59,24.80
2012,07,14,15,00,24.90
2012,07,14,15,01,25.00
2012,07,14,15,02,25.10
2012,07,14,15,03,25.10
2012,07,14,15,04,25.20
2012,07,14,15,05,25.20
2012,07,14,15,06,25.30
2012,07,14,15,07,25.40
2012,07,14,15,08,25.40
2012,07,14,15,09,25.50
2012,07,14,15,10,25.50
2012,07,14,15,11,25.40
2012,07,14,15,12,25.40
2012,07,14,15,13,25.40
2012,07,14,15,14,25.50
2012,07,14,15,15,25.60
2012,07,14,15,16,25.60
2012,07,14,15,17,25.70
2012,07,14,15,18,25.70
2012,07,14,15,19,25.70
2012,07,14,15,20,25.60
2012,07,14,15,21,25.50
2012,07,14,15,22,25.50
2012,07,14,15,23,25.20
2012,07,14,15,24,25.00
2012,07,14,15,25,24.80
2012,07,14,15,26,24.60
2012,07,14,15,27,24.50
2012,07,14,15,28,24.40
2012,07,14,15,29,24.30
2012,07,14,15,30,24.20
2012,07,14,15,31,24.30
2012,07,14,15,32,24.30
2012,07,14,15,33,24.40
2012,07,14,15,34,24.40
2012,07,14,15,35,24.40
2012,07,14,15,36,24.40
2012,07,14,15,37,24.50
2012,07,14,15,38,24.60
2012,07,14,15,39,24.70
2012,07,14,15,40,24.80
2012,07,14,15,41,24.90
2012,07,14,15,42,25.10
2012,07,14,15,43,25.30
2012,07,14,15,44,25.40
2012,07,14,15,45,25.50
2012,07,14,15,46,25.60
2012,07,14,15,47,25.60
2012,07,14,15,48,25.60
2012,07,14,15,49,25.70
2012,07,14,15,50,25.70
2012,07,14,15,51,25.60
2012,07,14,15,52,25.50
2012,07,14,15,53,25.40
2012,07,14,15,54,25.40
2012,07,14,15,55,25.40
2012,07,14,15,56,25.40
2012,07,14,15,57,25.50
2012,07,14,15,58,25.60
2012,07,14,15,59,25.70
2012,07,14,16,00,25.70
2012,07,14,16,01,25.70
2012,07,14,16,02,25.70
2012,07,14,16,03,25.70
2012,07,14,16,04,25.70
2012,07,14,16,05,25.60
2012,07,14,16,06,25.50
2012,07,14,16,07,25.20
2012,07,14,16,08,24.90
2012,07,14,16,09,24.70
2012,07,14,16,10,24.50
2012,07,14,16,11,24.30
2012,07,14,16,12,24.20
2012,07,14,16,13,24.10
2012,07,14,16,14,24.00
2012,07,14,16,15,23.90
2012,07,14,16,16,23.90
2012,07,14,16,17,23.90
2012,07,14,16,18,23.90
2012,07,14,16,19,23.90
2012,07,14,16,20,23.80
2012,07,14,16,21,23.90
2012,07,14,16,22,23.90
2012,07,14,16,23,23.90
2012,07,14,16,24,24.00
2012,07,14,16,25,24.00
2012,07,14,16,26,24.10
2012,07,14,16,27,24.20
2012,07,14,16,28,24.20
2012,07,14,16,29,24.20
2012,07,14,16,30,24.20
2012,07,14,16,31,24.20
2012,07,14,16,32,24.30
2012,07,14,16,33,24.30
2012,07,14,16,34,24.30
2012,07,14,16,35,24.20
2012,07,14,16,36,24.20
2012,07,14,16,37,24.20
2012,07,14,16,38,24.20
2012,07,14,16,39,24.30
2012,07,14,16,40,24.30
2012,07,14,16,41,24.30
2012,07,14,16,42,24.30
2012,07,14,16,43,24.30
2012,07,14,16,44,24.30
2012,07,14,16,45,24.30
2012,07,14,16,46,24.30
2012,07,14,16,47,24.40
2012,07,14,16,48,24.40
2012,07,14,16,49,24.30
2012,07,14,16,50,24.30
2012,07,14,16,51,24.30
2012,07,14,16,52,24.30
2012,07,14,16,53,24.20
2012,07,14,16,54,24.10
2012,07,14,16,55,24.10
2012,07,14,16,56,24.00
2012,07,14,16,57,24.00
2012,07,14,16,58,24.00
2012,07,14,16,59,23.90
2012,07,14,17,00,23.90
2012,07,14,17,01,23.80
2012,07,14,17,02,23.70
2012,07,14,17,03,23.70
2012,07,14,17,04,23.70
2012,07,14,17,05,23.60
2012,07,14,17,06,23.60
2012,07,14,17,07,23.70
2012,07,14,17,08,23.70
2012,07,14,17,09,23.80
2012,07,14,17,10,23.80
2012,07,14,17,11,23.90
2012,07,14,17,12,23.90
2012,07,14,17,13,23.90
2012,07,14,17,14,23.90
2012,07,14,17,15,23.90
2012,07,14,17,16,23.90
2012,07,14,17,17,23.90
2012,07,14,17,18,24.00
2012,07,14,17,19,24.00